When you browse on this site, cookies collect data to enhance your experience and personalize the content and advertising you see.
Visit our Privacy Policy to learn more. By continuing to use the site, you agree to this use of cookies and data.
  • In Czech Republic
  • List of Countries
  • For 7 days
  • Water Temperature
  • Weather Map
  • Weather Widgets
  • user-avatar
    Login

    Hourly Weather Rishon LeZiyyon

    Today, 29 March, Sunday

    Time Temperature Precipitation Wind Pressure Humidity
    00:00 +14°C° 0 mm 3 mps 756 mmHg 79%
    01:00 +14°C° 0 mm 3 mps 755 mmHg 79%
    02:00 +14°C° 0 mm 3 mps 755 mmHg 81%
    03:00 +13°C° 0 mm 3 mps 755 mmHg 81%
    04:00 +13°C° 0 mm 4 mps 755 mmHg 82%
    05:00 +13°C° 0 mm 4 mps 755 mmHg 83%
    06:00 +14°C° 0 mm 5 mps 755 mmHg 81%
    07:00 +14°C° 0 mm 5 mps 755 mmHg 79%
    08:00 +15°C° 0 mm 5 mps 755 mmHg 77%
    09:00 +16°C° 0 mm 6 mps 755 mmHg 70%
    10:00 +17°C° 0 mm 6 mps 755 mmHg 63%
    11:00 +18°C° 0 mm 7 mps 755 mmHg 56%
    12:00 +20°C° 0 mm 7 mps 755 mmHg 54%
    13:00 +20°C° 0 mm 7 mps 754 mmHg 51%
    14:00 +20°C° 0 mm 7 mps 754 mmHg 48%
    15:00 +20°C° 0 mm 6 mps 754 mmHg 49%
    16:00 +19°C° 0 mm 5 mps 754 mmHg 50%
    17:00 +19°C° 0 mm 4 mps 754 mmHg 51%
    18:00 +18°C° 0 mm 3 mps 754 mmHg 55%
    19:00 +17°C° 0 mm 3 mps 754 mmHg 59%
    20:00 +16°C° 0 mm 2 mps 754 mmHg 63%
    21:00 +16°C° 0 mm 2 mps 754 mmHg 62%
    22:00 +16°C° 0 mm 3 mps 755 mmHg 61%
    23:00 +16°C° 0 mm 3 mps 755 mmHg 61%

    Tomorrow, 30 March, Monday

    Time Temperature Precipitation Wind Pressure Humidity
    00:00 +16°C° 0 mm 3 mps 754 mmHg 61%
    01:00 +14°C° 0 mm 3 mps 754 mmHg 62%
    02:00 +14°C° 0 mm 4 mps 754 mmHg 63%
    03:00 +14°C° 0 mm 3 mps 754 mmHg 62%
    04:00 +14°C° 0 mm 3 mps 754 mmHg 61%
    05:00 +14°C° 0 mm 3 mps 754 mmHg 60%
    06:00 +16°C° 0 mm 2 mps 754 mmHg 55%
    07:00 +18°C° 0 mm 2 mps 754 mmHg 50%
    08:00 +19°C° 0 mm 2 mps 754 mmHg 46%
    09:00 +20°C° 0 mm 2 mps 754 mmHg 43%
    10:00 +22°C° 0 mm 1 mps 754 mmHg 40%
    11:00 +24°C° 0 mm 1 mps 754 mmHg 37%
    12:00 +24°C° 0 mm 1 mps 754 mmHg 35%
    13:00 +25°C° 0 mm 1 mps 753 mmHg 33%
    14:00 +25°C° 0 mm 2 mps 752 mmHg 31%
    15:00 +25°C° 0 mm 2 mps 752 mmHg 36%
    16:00 +24°C° 0 mm 3 mps 752 mmHg 40%
    17:00 +24°C° 0 mm 3 mps 752 mmHg 44%
    18:00 +22°C° 0 mm 3 mps 752 mmHg 43%
    19:00 +22°C° 0 mm 4 mps 752 mmHg 42%
    20:00 +21°C° 0 mm 4 mps 752 mmHg 41%
    21:00 +21°C° 0 mm 4 mps 752 mmHg 42%
    22:00 +20°C° 0 mm 3 mps 752 mmHg 43%
    23:00 +20°C° 0 mm 3 mps 752 mmHg 43%

    Day after tomorrow, 31 March, Tuesday

    Time Temperature Precipitation Wind Pressure Humidity
    00:00 +20°C° 0 mm 3 mps 751 mmHg 43%
    01:00 +20°C° 0 mm 3 mps 751 mmHg 42%
    02:00 +20°C° 0 mm 3 mps 750 mmHg 41%
    03:00 +20°C° 0 mm 3 mps 750 mmHg 40%
    04:00 +20°C° 0 mm 4 mps 750 mmHg 38%
    05:00 +20°C° 0 mm 5 mps 750 mmHg 37%
    06:00 +21°C° 0 mm 5 mps 750 mmHg 38%
    07:00 +23°C° 0 mm 5 mps 750 mmHg 38%
    08:00 +25°C° 0 mm 4 mps 750 mmHg 39%
    09:00 +26°C° 0 mm 5 mps 750 mmHg 37%
    10:00 +27°C° 0 mm 6 mps 750 mmHg 34%
    11:00 +29°C° 0 mm 7 mps 749 mmHg 32%
    12:00 +29°C° 0 mm 7 mps 749 mmHg 31%
    13:00 +29°C° 0 mm 7 mps 748 mmHg 30%
    14:00 +29°C° 0 mm 7 mps 748 mmHg 29%
    15:00 +27°C° 0 mm 6 mps 748 mmHg 41%
    16:00 +24°C° 0 mm 6 mps 748 mmHg 52%
    17:00 +21°C° 0 mm 5 mps 748 mmHg 64%
    18:00 +20°C° 0 mm 5 mps 749 mmHg 68%
    19:00 +19°C° 0 mm 5 mps 750 mmHg 72%
    20:00 +18°C° 0 mm 4 mps 750 mmHg 76%
    21:00 +17°C° 0 mm 5 mps 751 mmHg 78%
    22:00 +16°C° 0 mm 5 mps 751 mmHg 81%
    23:00 +16°C° 0 mm 5 mps 752 mmHg 83%

    1 April, Wednesday

    Time Temperature Precipitation Wind Pressure Humidity
    00:00 +16°C° 0 mm 6 mps 752 mmHg 85%
    01:00 +16°C° 0 mm 6 mps 752 mmHg 87%
    02:00 +15°C° 0 mm 6 mps 752 mmHg 88%
    03:00 +16°C° 0.2 mm 6 mps 752 mmHg 86%
    04:00 +16°C° 0.2 mm 6 mps 752 mmHg 84%
    05:00 +16°C° 0.2 mm 6 mps 752 mmHg 82%
    06:00 +16°C° 0.3 mm 6 mps 752 mmHg 81%
    07:00 +17°C° 0.3 mm 6 mps 753 mmHg 80%
    08:00 +17°C° 0.3 mm 6 mps 753 mmHg 78%
    09:00 +17°C° 0.3 mm 6 mps 753 mmHg 76%
    10:00 +19°C° 0.3 mm 6 mps 753 mmHg 75%
    11:00 +19°C° 0.3 mm 6 mps 753 mmHg 73%
    12:00 +19°C° 0.2 mm 6 mps 753 mmHg 73%
    13:00 +19°C° 0.2 mm 6 mps 753 mmHg 72%
    14:00 +19°C° 0.2 mm 6 mps 753 mmHg 72%
    15:00 +19°C° 0.1 mm 6 mps 753 mmHg 75%
    16:00 +17°C° 0.1 mm 5 mps 753 mmHg 77%
    17:00 +17°C° 0.1 mm 5 mps 753 mmHg 80%
    18:00 +18°C° 0.1 mm 4 mps 753 mmHg 82%
    19:00 +17°C° 0.1 mm 3 mps 754 mmHg 85%
    20:00 +16°C° 0.1 mm 2 mps 754 mmHg 88%
    21:00 +16°C° 0.1 mm 2 mps 754 mmHg 88%
    22:00 +16°C° 0.1 mm 2 mps 754 mmHg 88%
    23:00 +16°C° 0.1 mm 2 mps 754 mmHg 88%

    2 April, Thursday

    Time Temperature Precipitation Wind Pressure Humidity
    00:00 +16°C° 0 mm 2 mps 754 mmHg 88%
    01:00 +16°C° 0 mm 2 mps 754 mmHg 87%
    02:00 +15°C° 0 mm 2 mps 753 mmHg 87%
    03:00 +15°C° 0 mm 2 mps 754 mmHg 86%
    04:00 +15°C° 0 mm 2 mps 754 mmHg 86%
    05:00 +15°C° 0 mm 2 mps 754 mmHg 86%
    06:00 +16°C° 0.1 mm 2 mps 754 mmHg 82%
    07:00 +16°C° 0.1 mm 2 mps 754 mmHg 78%
    08:00 +17°C° 0.1 mm 3 mps 755 mmHg 75%
    09:00 +18°C° 0 mm 3 mps 755 mmHg 71%
    10:00 +18°C° 0 mm 3 mps 754 mmHg 67%
    11:00 +19°C° 0 mm 3 mps 754 mmHg 63%
    12:00 +19°C° 0 mm 3 mps 754 mmHg 62%
    13:00 +19°C° 0 mm 4 mps 754 mmHg 61%
    14:00 +20°C° 0 mm 4 mps 753 mmHg 60%
    15:00 +19°C° 0 mm 4 mps 753 mmHg 62%
    16:00 +19°C° 0 mm 4 mps 753 mmHg 65%
    17:00 +18°C° 0 mm 4 mps 753 mmHg 67%
    18:00 +17°C° 0 mm 3 mps 753 mmHg 71%
    19:00 +16°C° 0 mm 2 mps 754 mmHg 74%
    20:00 +16°C° 0 mm 1 mps 754 mmHg 78%
    21:00 +15°C° 0 mm 1 mps 754 mmHg 79%
    22:00 +15°C° 0 mm 1 mps 754 mmHg 79%
    23:00 +15°C° 0 mm 1 mps 755 mmHg 80%

    3 April, Friday

    Time Temperature Precipitation Wind Pressure Humidity
    00:00 +15°C° 0 mm 2 mps 754 mmHg 80%
    01:00 +15°C° 0 mm 2 mps 754 mmHg 81%
    02:00 +14°C° 0 mm 3 mps 754 mmHg 81%
    03:00 +14°C° 0 mm 3 mps 754 mmHg 81%
    04:00 +14°C° 0 mm 3 mps 754 mmHg 81%
    05:00 +14°C° 0 mm 3 mps 755 mmHg 82%
    06:00 +16°C° 0 mm 3 mps 755 mmHg 78%
    07:00 +16°C° 0 mm 3 mps 755 mmHg 75%
    08:00 +17°C° 0 mm 4 mps 755 mmHg 72%
    09:00 +18°C° 0 mm 4 mps 755 mmHg 69%
    10:00 +18°C° 0 mm 4 mps 755 mmHg 66%
    11:00 +19°C° 0 mm 4 mps 755 mmHg 63%
    12:00 +19°C° 0 mm 4 mps 755 mmHg 63%
    13:00 +19°C° 0 mm 4 mps 755 mmHg 63%
    14:00 +20°C° 0 mm 4 mps 755 mmHg 63%
    15:00 +19°C° 0 mm 4 mps 755 mmHg 65%
    16:00 +19°C° 0 mm 3 mps 755 mmHg 67%
    17:00 +18°C° 0 mm 3 mps 755 mmHg 68%
    18:00 +17°C° 0 mm 2 mps 755 mmHg 72%
    19:00 +16°C° 0 mm 2 mps 755 mmHg 75%
    20:00 +16°C° 0 mm 1 mps 756 mmHg 78%
    21:00 +15°C° 0 mm 1 mps 756 mmHg 78%
    22:00 +15°C° 0 mm 1 mps 756 mmHg 78%
    23:00 +15°C° 0 mm 1 mps 755 mmHg 78%
    Show more